Wetbulb
69.61 69.34 69.30 68.96 67.78 66.90 65.58 64.57 64.86 64.22 64.31 65.08 65.76 66.90 68.45 68.03 67.92 68.21 67.94 73.23 71.77 71.55 69.82 69.07 68.12 68.03 67.79 67.98 66.89 66.15 65.62 64.73 64.14 63.14 62.71 62.62 62.55 62.67 62.93 62.95 62.71 62.66 62.43
68.96 68.66 68.01 68.19 66.88 66.00 65.61 64.75 64.86 64.43 64.55 65.84 66.70 69.34 69.80 68.33 67.38 66.73 66.24 68.82 70.88 70.47 70.12 68.28 67.40 66.73 67.08 66.80 66.34 65.86 64.97 64.16 62.97 62.43 62.27 62.52 62.57 62.57 62.41 62.43 62.50 62.43 62.26
68.39 68.62 67.78 67.20 66.86 66.35 65.55 64.64 65.29 66.01 65.34 67.52 68.10 69.72 69.45 68.57 68.28 66.78 65.83 65.53 68.00 69.81 69.32 68.84 67.90 66.22 65.98 66.21 65.84 65.95 65.04 63.95 62.60 62.17 62.43 62.24 61.95 61.70 61.68 61.63 61.42 61.65 61.91
67.66 67.79 67.97 67.60 66.96 65.75 65.48 64.99 64.48 65.40 66.98 67.01 66.88 66.91 66.59 66.80 66.10 64.57 65.40 65.51 65.93 65.34 67.57 68.54 68.63 66.79 65.72 66.06 65.11 64.63 64.46 63.35 62.24 62.43 62.24 62.26 61.99 61.35 61.46 61.56 61.60 60.78 60.62
68.40 67.88 67.88 67.83 66.73 65.80 66.04 65.85 67.25 67.29 66.46 65.22 65.41 65.97 64.16 63.25 62.73 63.83 64.65 65.03 64.51 64.25 62.08 63.45 67.35 68.28 67.82 66.14 65.19 64.31 63.63 62.69 62.01 62.55 62.43 61.96 61.42 61.02 61.00 60.99 60.13 60.13 60.75
69.31 67.84 66.99 67.08 66.66 67.58 67.94 68.33 67.05 66.19 65.17 64.09 64.39 62.81 62.33 61.06 61.57 61.03 61.05 61.81 62.25 62.17 61.43 62.03 62.29 62.47 66.17 66.36 65.36 65.21 64.52 62.87 62.20 62.23 61.84 61.06 60.61 60.36 59.58 58.90 58.71 58.79 58.68
68.38 68.67 67.71 66.15 67.83 68.73 68.28 68.17 66.35 64.13 61.64 61.96 59.40 58.59 60.54 60.75 60.28 61.77 61.05 61.37 60.62 60.51 56.50 56.18 57.50 57.08 59.56 64.94 63.51 61.89 61.45 61.25 61.53 60.70 59.10 57.67 56.74 56.62 56.95 57.46 57.71 57.64 57.75
67.50 68.87 68.18 68.08 68.86 67.90 67.13 66.51 64.75 63.13 60.40 58.98 55.51 56.63 55.34 58.57 57.81 57.30 55.71 54.84 54.00 55.51 54.46 54.36 55.45 57.77 57.31 56.97 57.27 59.25 59.31 58.57 57.93 57.24 56.31 56.15 56.69 57.20 57.36 57.68 58.00 58.17 58.25
67.46 68.67 68.24 69.49 68.48 68.46 67.22 66.46 64.60 62.64 59.21 59.69 58.25 55.81 52.50 53.67 54.63 56.54 53.29 51.93 51.61 52.29 52.49 54.07 54.85 55.04 54.05 53.59 55.18 55.92 57.08 55.75 55.85 56.12 56.37 56.45 56.88 57.43 57.71 57.80 57.43 57.90 58.15
67.93 69.15 69.52 69.35 68.75 67.38 66.37 65.07 63.84 61.60 59.86 59.19 57.55 58.71 56.52 56.77 53.46 52.68 53.12 51.00 51.08 50.99 49.84 49.84 48.50 48.92 48.63 49.56 53.96 55.99 54.96 55.14 55.64 55.76 55.40 55.31 55.63 55.71 55.85 55.83 55.92 56.16 56.46
68.12 69.97 69.80 68.97 67.58 66.27 64.00 63.13 62.03 60.91 60.46 59.33 56.72 54.33 53.18 52.34 54.33 51.89 49.33 48.38 48.19 48.43 48.66 47.78 46.90 44.48 45.20 47.43 47.72 49.68 52.98 53.04 52.21 53.59 53.57 53.65 53.38 53.43 53.90 54.78 55.42 55.63 56.19
68.30 69.77 69.37 68.10 65.49 63.25 62.66 61.80 60.38 59.36 57.55 56.39 55.53 54.34 53.40 51.96 49.64 48.58 46.88 45.50 44.92 45.51 47.59 44.72 43.58 43.38 42.60 44.00 50.15 50.30 49.39 49.58 50.18 51.44 51.93 51.69 52.56 52.37 52.62 53.30 54.46 55.25 56.09
68.39 68.98 68.12 65.59 63.73 62.72 61.89 59.77 57.59 56.25 54.84 53.44 52.05 50.69 49.92 49.43 49.80 48.00 45.69 43.69 43.65 44.00 44.48 44.81 40.77 41.12 43.47 41.26 44.27 47.95 47.46 48.30 49.03 49.72 50.43 51.45 51.72 51.52 51.32 51.26 51.89 53.47 55.10
68.71 68.39 67.02 64.45 63.03 61.84 59.88 57.72 56.23 54.58 53.31 52.10 50.86 49.65 48.75 47.92 48.16 47.14 46.00 43.79 40.70 41.43 41.93 37.43 39.15 39.19 40.25 40.00 45.37 48.06 40.50 47.05 47.97 47.92 48.68 50.10 50.58 51.21 50.86 49.99 49.97 50.10 50.51
68.21 67.47 64.90 63.34 61.74 59.86 57.46 56.30 54.17 52.09 51.98 51.66 50.12 47.93 46.24 44.94 43.98 41.98 41.27 43.38 41.73 36.77 36.69 40.23 34.85 38.14 38.50 38.67 41.40 39.60 38.52 46.20 46.97 47.13 48.31 49.32 49.75 50.23 50.58 49.57 49.01 48.63 48.89
67.38 65.50 63.68 61.96 59.77 58.26 56.86 55.08 52.44 52.35 51.20 49.51 46.78 44.32 42.18 40.79 40.16 39.27 37.85 36.66 37.02 36.38 30.20 34.60 35.22 35.86 37.25 39.61 42.40 39.96 39.30 45.50 45.04 46.22 48.22 48.60 48.43 48.46 49.07 48.72 48.29 47.76 47.83
66.08 64.65 62.49 60.27 57.75 57.00 55.56 53.55 53.03 51.63 47.94 44.56 43.13 41.80 39.68 38.37 36.67 36.57 36.43 35.47 34.69 34.07 30.14 31.71 34.49 35.49 34.96 35.22 37.45 37.45 39.94 37.87 38.89 44.41 47.72 47.42 48.35 48.15 48.17 48.00 47.34 46.79 46.63
64.96 63.28 61.24 58.86 57.60 55.19 54.39 53.24 52.04 48.45 45.31 42.56 41.39 40.29 39.32 39.84 35.48 35.52 35.38 35.07 34.17 33.33 31.56 29.56 31.26 33.04 33.90 34.61 35.53 35.43 38.29 40.06 37.55 43.30 46.73 46.45 47.16 47.07 47.46 47.68 45.73 45.44 45.66
63.09 61.80 59.79 57.75 55.57 55.02 53.14 51.19 49.28 44.23 41.69 40.26 39.35 38.79 38.85 37.95 36.21 36.15 35.86 35.36 34.75 35.74 32.38 30.96 31.08 31.75 32.66 33.53 35.26 34.97 36.13 35.34 39.47 44.47 44.15 44.79 44.85 46.17 46.90 45.14 44.68 44.62 45.04
61.26 60.07 58.66 56.17 54.96 53.13 50.21 47.25 42.47 40.41 40.05 39.60 39.74 40.02 39.73 38.86 37.13 36.64 36.96 35.74 33.93 32.71 32.23 31.30 30.73 30.41 30.94 33.23 32.15 32.10 33.74 36.34 35.82 38.83 40.95 42.43 43.45 44.19 44.40 44.15 43.93 45.11 44.12
60.57 58.72 56.47 53.92 52.56 50.97 47.18 43.31 40.11 37.82 37.51 37.81 39.58 41.14 41.49 44.47 46.12 42.18 36.21 33.56 32.78 31.21 31.15 30.23 29.51 29.24 29.49 30.30 31.10 31.86 32.89 34.19 35.16 33.44 34.65 37.26 37.86 38.93 39.80 41.26 42.78 44.42 44.20
57.69 55.88 54.07 52.24 50.56 47.66 45.19 44.08 39.44 35.69 36.25 36.02 35.40 36.20 37.00 39.57 42.61 43.94 43.97 43.99 39.69 33.11 30.97 29.74 29.00 27.92 28.89 29.61 30.20 32.14 29.88 31.51 27.81 33.56 35.14 34.75 37.80 37.40 38.29 38.40 43.01 43.49 43.40
54.73 52.81 51.60 49.61 46.18 44.29 43.39 41.91 40.22 34.77 34.10 33.79 33.94 34.55 35.94 37.64 35.84 33.94 39.73 40.01 40.63 42.30 40.16 31.80 28.48 28.62 28.78 31.29 30.61 31.16 32.35 31.20 30.41 34.47 33.92 33.08 36.80 35.91 37.74 38.69 42.22 43.49 43.02
49.61 47.91 46.38 45.33 43.71 42.39 40.01 38.48 38.24 34.52 33.43 33.21 32.62 32.34 32.54 32.99 35.86 33.61 33.31 33.23 33.39 33.92 36.07 36.27 31.59 32.12 32.68 33.55 33.61 32.98 30.91 30.65 32.02 34.05 32.31 30.53 35.62 34.26 36.63 37.80 42.24 43.04 43.07
46.76 45.23 44.47 42.87 40.33 37.32 38.49 38.04 36.28 34.48 33.46 32.25 32.35 32.23 32.61 32.78 37.93 37.35 32.80 31.87 31.34 32.41 38.33 39.12 38.58 38.43 38.02 38.16 39.37 33.47 31.75 30.28 29.05 30.43 31.00 31.64 33.45 33.26 35.00 38.37 39.98 42.28 42.17
44.96 43.38 40.35 38.75 38.90 35.40 37.89 37.86 36.52 35.00 32.69 31.80 31.33 33.52 39.18 35.53 37.28 36.50 31.30 30.20 30.10 28.98 31.46 31.26 32.11 33.32 34.24 34.89 38.22 34.12 32.59 29.78 28.93 26.52 30.88 31.76 32.14 33.08 32.28 38.09 39.02 40.33 40.15
MSLP
1011.18 1011.25 1011.40 1011.44 1011.61 1011.89 1012.23 1012.39 1012.36 1012.48 1012.58 1012.50 1012.66 1012.62 1012.45 1012.73 1013.03 1013.25 1013.56 1013.69 1013.80 1013.83 1013.91 1013.99 1014.02 1014.02 1013.95 1013.95 1014.03 1014.13 1014.09 1014.04 1014.11 1014.17 1014.17 1014.11 1013.82 1013.57 1013.32 1013.07 1012.84 1012.50 1012.13
1010.86 1011.11 1011.31 1011.43 1011.66 1011.76 1012.07 1012.23 1012.52 1012.64 1012.66 1012.66 1012.66 1012.36 1012.50 1012.73 1013.14 1013.52 1013.72 1013.88 1013.78 1013.77 1013.88 1013.90 1013.99 1014.04 1013.96 1014.00 1014.05 1014.13 1014.21 1014.23 1014.21 1014.20 1014.20 1014.12 1013.88 1013.61 1013.35 1013.01 1012.69 1012.32 1011.91
1010.48 1010.80 1011.07 1011.20 1011.40 1011.60 1011.92 1012.23 1012.39 1012.54 1012.86 1012.84 1012.90 1012.76 1012.62 1012.93 1013.28 1013.68 1013.89 1014.00 1013.89 1013.74 1013.90 1013.90 1013.89 1013.94 1013.87 1013.86 1013.93 1014.03 1014.21 1014.32 1014.29 1014.35 1014.27 1014.08 1013.83 1013.60 1013.31 1012.95 1012.62 1012.23 1011.79
1009.93 1010.55 1010.69 1010.80 1010.89 1011.24 1011.66 1012.08 1012.36 1012.58 1012.84 1013.01 1013.14 1013.38 1013.27 1013.28 1013.44 1013.65 1013.84 1013.88 1013.97 1013.83 1013.77 1013.86 1013.97 1014.05 1013.95 1013.82 1013.96 1014.03 1014.22 1014.37 1014.40 1014.29 1014.04 1013.89 1013.75 1013.46 1013.10 1012.72 1012.41 1012.05 1011.69
1009.33 1009.87 1010.32 1010.42 1010.70 1011.27 1011.59 1011.84 1012.11 1012.49 1012.87 1013.24 1013.14 1013.28 1013.58 1013.64 1013.62 1013.59 1013.70 1013.74 1014.02 1014.15 1014.26 1014.12 1014.06 1014.04 1013.92 1013.91 1013.99 1014.09 1014.12 1014.18 1014.39 1014.15 1013.74 1013.50 1013.32 1013.04 1012.74 1012.47 1012.09 1011.74 1011.36
1008.68 1009.52 1009.89 1010.19 1010.47 1011.14 1011.50 1011.75 1012.04 1012.48 1012.86 1013.08 1013.21 1013.74 1013.98 1013.95 1013.91 1014.00 1014.07 1013.99 1013.93 1014.08 1014.09 1014.17 1014.03 1014.04 1013.92 1014.00 1014.12 1014.08 1014.27 1014.28 1014.13 1013.87 1013.64 1013.48 1013.20 1012.83 1012.46 1012.22 1011.78 1011.30 1010.99
1008.45 1009.15 1009.56 1009.88 1010.48 1010.89 1011.14 1011.37 1011.92 1012.73 1013.14 1013.07 1013.39 1014.21 1014.47 1014.52 1014.53 1014.48 1014.39 1014.35 1014.30 1014.54 1014.41 1014.34 1014.53 1014.59 1014.63 1014.45 1014.54 1014.55 1014.54 1014.52 1014.29 1014.04 1013.71 1013.35 1012.98 1012.58 1012.23 1011.80 1011.49 1011.12 1010.74
1008.04 1008.46 1009.01 1009.62 1010.10 1010.65 1010.93 1011.39 1011.78 1012.48 1013.09 1013.26 1013.74 1014.54 1015.09 1015.26 1015.31 1015.33 1015.19 1015.14 1015.23 1015.10 1015.10 1015.13 1015.22 1015.29 1015.16 1015.10 1014.88 1014.76 1014.63 1014.43 1014.02 1013.84 1013.74 1013.45 1012.83 1012.32 1011.83 1011.45 1011.07 1010.68 1010.30
1007.62 1008.12 1008.45 1008.99 1009.87 1010.26 1010.76 1011.22 1011.43 1011.83 1013.16 1013.64 1013.43 1014.00 1014.93 1015.36 1015.70 1015.80 1016.13 1016.10 1015.94 1015.98 1015.88 1015.81 1016.04 1016.10 1015.94 1015.74 1015.56 1015.18 1014.71 1014.40 1014.16 1013.84 1013.58 1013.29 1012.73 1012.03 1011.56 1011.22 1010.77 1010.49 1010.05
1007.38 1007.92 1008.30 1008.54 1009.49 1010.04 1010.40 1010.92 1011.16 1011.65 1012.14 1013.58 1013.89 1013.90 1014.14 1014.56 1015.43 1016.40 1016.49 1016.81 1016.52 1016.46 1016.58 1016.69 1016.56 1016.63 1016.45 1016.18 1015.82 1015.55 1015.25 1014.76 1014.42 1013.90 1013.53 1013.17 1012.73 1012.33 1011.89 1011.46 1010.95 1010.38 1009.79
1006.44 1007.56 1008.04 1008.37 1009.16 1009.74 1010.24 1010.69 1011.21 1011.70 1012.11 1013.19 1013.44 1014.17 1014.66 1014.91 1015.08 1015.85 1016.73 1017.22 1017.43 1017.31 1017.20 1017.40 1017.21 1017.13 1016.78 1016.46 1016.17 1016.00 1015.70 1015.30 1014.76 1014.04 1013.65 1013.28 1012.90 1012.48 1012.02 1011.39 1010.75 1010.18 1009.53
1006.01 1007.40 1007.81 1008.55 1009.11 1009.72 1010.36 1010.78 1011.31 1011.80 1012.49 1013.08 1013.58 1014.17 1014.57 1015.12 1015.64 1016.26 1017.16 1017.50 1017.63 1017.94 1017.69 1017.64 1017.57 1017.63 1017.51 1017.04 1016.50 1016.20 1015.99 1015.39 1014.76 1014.02 1013.52 1013.18 1012.74 1012.35 1011.84 1011.20 1010.54 1009.90 1009.16
1005.76 1006.57 1007.48 1008.47 1009.31 1009.85 1010.50 1011.01 1011.63 1012.28 1012.92 1013.60 1014.24 1014.67 1014.87 1015.32 1015.70 1016.47 1017.16 1017.79 1018.13 1018.14 1018.19 1018.03 1018.08 1017.90 1017.65 1017.31 1016.82 1016.20 1015.98 1015.46 1014.73 1014.07 1013.65 1013.18 1012.68 1012.19 1011.76 1011.29 1010.67 1009.94 1009.07
1005.06 1006.17 1007.18 1007.93 1008.94 1009.76 1010.67 1011.35 1012.08 1012.81 1013.45 1014.16 1014.83 1015.20 1015.67 1016.06 1016.30 1016.75 1017.07 1017.76 1018.68 1018.67 1018.82 1018.79 1018.41 1018.24 1017.88 1017.45 1016.92 1016.19 1015.88 1015.28 1014.69 1014.17 1013.59 1013.01 1012.48 1011.85 1011.35 1010.76 1010.39 1009.97 1009.39
1004.65 1005.64 1006.45 1008.16 1008.64 1009.71 1011.00 1011.84 1012.66 1013.35 1014.04 1014.98 1015.51 1015.93 1016.49 1016.92 1017.12 1017.16 1017.37 1017.76 1018.45 1019.30 1019.58 1019.12 1018.76 1018.08 1017.88 1017.28 1016.83 1016.44 1015.90 1014.94 1014.17 1014.03 1013.47 1012.76 1012.18 1011.61 1010.95 1010.51 1010.03 1009.48 1009.08
1004.49 1005.67 1006.46 1007.69 1008.36 1010.00 1011.18 1012.30 1013.30 1013.86 1014.67 1015.63 1016.20 1016.73 1017.28 1017.69 1017.83 1017.87 1017.94 1018.33 1018.50 1019.05 1019.93 1019.91 1019.26 1018.40 1017.66 1017.32 1016.73 1016.28 1015.82 1015.02 1014.25 1013.91 1013.22 1012.49 1011.96 1011.32 1010.61 1010.01 1009.49 1009.07 1008.68
1004.50 1005.63 1006.70 1007.43 1008.09 1009.50 1011.37 1012.84 1014.06 1014.39 1015.33 1016.35 1017.08 1017.50 1017.97 1018.20 1018.59 1018.61 1018.61 1018.98 1019.14 1019.36 1020.18 1020.11 1019.49 1018.53 1017.81 1017.35 1016.97 1016.55 1015.79 1014.94 1014.19 1013.79 1012.88 1012.29 1011.68 1010.99 1010.33 1009.68 1009.09 1008.72 1008.35
1004.64 1005.51 1006.80 1007.92 1008.53 1009.93 1011.07 1012.80 1014.43 1014.64 1016.31 1017.10 1017.76 1018.01 1018.40 1018.79 1019.21 1019.12 1019.38 1019.83 1019.84 1019.98 1020.58 1020.46 1019.81 1019.05 1018.18 1017.73 1017.39 1016.89 1015.78 1014.67 1014.20 1013.60 1012.69 1012.03 1011.44 1010.84 1010.12 1009.40 1008.92 1008.47 1008.04
1004.55 1006.08 1006.70 1007.73 1009.38 1010.43 1011.49 1013.02 1014.65 1015.50 1016.88 1017.83 1018.36 1018.46 1018.92 1019.21 1019.42 1019.42 1019.74 1019.98 1020.01 1020.44 1020.59 1020.50 1020.08 1019.36 1018.56 1017.85 1017.24 1016.96 1016.21 1014.79 1014.05 1013.46 1012.69 1012.08 1011.35 1010.65 1009.91 1009.31 1008.75 1008.30 1007.82
1004.42 1006.09 1006.12 1007.44 1009.62 1011.17 1011.81 1013.62 1014.55 1016.78 1017.58 1018.52 1018.74 1019.03 1019.20 1019.21 1019.40 1019.58 1019.86 1020.04 1020.37 1020.56 1020.57 1020.51 1020.02 1019.62 1019.39 1018.47 1017.68 1017.38 1016.26 1014.88 1014.18 1013.34 1012.66 1012.04 1011.23 1010.51 1009.91 1009.21 1008.66 1008.05 1007.74
1004.64 1005.97 1007.47 1007.37 1010.34 1011.93 1012.85 1014.30 1015.79 1016.98 1018.28 1018.98 1019.37 1019.29 1019.39 1019.04 1019.12 1019.42 1019.54 1020.31 1020.33 1020.73 1020.73 1020.51 1020.37 1020.08 1019.69 1018.94 1018.23 1017.73 1016.60 1015.47 1014.58 1013.58 1012.88 1012.17 1011.38 1010.43 1009.81 1009.17 1008.59 1007.98 1007.50
1005.38 1006.64 1007.59 1008.75 1010.93 1012.93 1013.96 1015.40 1016.09 1017.49 1018.71 1019.26 1019.54 1019.91 1019.86 1019.71 1019.62 1019.65 1019.78 1019.97 1020.30 1020.49 1020.63 1020.38 1020.55 1020.46 1020.27 1019.60 1018.62 1018.12 1016.93 1015.79 1015.45 1013.78 1013.21 1012.38 1011.46 1010.47 1009.66 1008.96 1008.29 1007.73 1007.13
1006.83 1007.70 1009.30 1010.20 1012.31 1012.99 1015.62 1015.90 1017.28 1018.34 1018.89 1019.42 1019.73 1020.06 1020.37 1020.43 1020.19 1019.98 1020.16 1020.28 1020.69 1020.59 1020.31 1020.07 1021.07 1020.58 1020.55 1019.76 1019.21 1018.36 1017.52 1017.26 1016.54 1014.22 1013.73 1012.32 1011.41 1010.54 1009.64 1008.62 1008.02 1007.45 1006.82
1007.91 1007.10 1010.14 1012.11 1014.34 1015.13 1015.45 1016.90 1018.28 1018.76 1019.23 1019.92 1020.31 1020.69 1020.86 1020.98 1020.78 1020.46 1020.59 1020.80 1020.88 1020.91 1020.33 1020.10 1021.17 1020.39 1020.31 1019.91 1019.16 1018.58 1018.03 1017.54 1015.91 1014.28 1013.99 1012.91 1011.49 1010.80 1009.49 1008.50 1007.79 1007.07 1006.38
1008.42 1009.95 1012.61 1013.71 1014.33 1016.76 1016.57 1017.75 1018.46 1019.03 1019.74 1020.44 1020.66 1021.09 1021.09 1021.00 1020.99 1021.02 1021.16 1021.38 1021.50 1021.26 1020.66 1020.63 1020.70 1020.05 1020.04 1019.49 1018.93 1018.58 1018.28 1017.48 1016.21 1014.81 1014.30 1013.91 1011.89 1010.74 1009.26 1008.34 1007.71 1007.05 1006.47
1009.69 1011.45 1013.37 1013.95 1016.40 1017.57 1017.79 1018.37 1018.71 1018.74 1020.48 1020.63 1021.52 1021.67 1021.47 1021.37 1021.55 1021.65 1021.37 1022.03 1021.53 1021.97 1021.40 1021.27 1020.98 1020.56 1020.30 1019.74 1019.15 1019.23 1018.91 1017.94 1017.39 1015.81 1014.44 1013.96 1012.70 1011.59 1009.68 1008.38 1007.89 1007.15 1006.63
Wind_Speed
6 5 4 4 3 3 3 4 3 3 4 4 3 4 3 4 5 2 2 5 6 6 5 5 5 6 7 7 7 6 6 5 4 4 5 6 8 11 14 16 17 18 18
6 5 4 4 4 4 3 3 3 3 2 2 5 5 3 5 5 4 2 3 8 7 6 6 5 5 6 6 6 5 4 3 2 2 3 7 11 13 15 16 18 19 19
7 7 5 4 4 4 4 2 3 2 1 3 2 2 2 3 4 4 3 3 3 7 7 6 6 5 6 6 6 6 5 3 1 3 7 9 11 13 14 17 18 19 18
9 6 6 6 5 4 4 4 3 1 1 0 1 3 2 3 4 4 4 3 3 3 5 6 5 6 5 6 5 3 3 2 2 6 8 11 11 14 15 16 18 16 17
10 8 6 5 5 4 4 4 2 3 2 1 3 4 3 3 2 2 4 3 2 2 2 5 7 6 7 6 5 3 3 3 3 8 11 14 15 17 17 17 18 17 17
12 9 5 5 5 4 4 3 4 2 3 3 3 4 3 3 3 2 2 3 2 2 2 5 4 3 8 4 4 6 7 5 9 13 14 14 16 18 20 21 22 20 19
10 9 6 5 5 5 6 6 4 5 2 1 4 3 4 5 6 4 4 4 7 6 7 7 5 4 5 15 14 11 10 12 14 15 16 17 19 20 19 19 19 17 16
12 10 8 6 8 5 6 5 6 4 3 3 4 3 2 2 5 6 4 6 6 6 8 8 8 8 6 4 7 10 11 12 14 17 18 17 17 18 19 19 19 20 20
12 11 10 8 7 7 8 6 5 7 4 2 3 5 2 3 2 2 6 5 6 6 6 7 7 6 6 5 6 7 11 14 16 16 17 18 18 19 20 20 20 19 21
11 10 10 10 10 6 7 5 4 4 6 5 2 3 4 3 4 2 1 3 5 7 6 5 6 7 7 5 10 14 15 15 15 16 16 16 17 19 21 22 23 24 24
12 11 10 10 8 5 6 7 6 6 4 4 3 3 2 4 4 3 3 1 3 4 4 5 5 5 6 6 5 10 16 16 17 13 13 14 15 17 20 21 21 23 23
8 10 9 9 7 7 7 6 6 7 6 5 3 3 3 3 1 3 2 1 1 0 1 3 6 5 5 5 9 16 17 16 16 13 12 13 12 17 20 20 20 22 22
10 10 11 10 8 8 8 8 8 8 6 7 5 4 4 3 3 3 3 1 1 1 2 2 4 4 5 4 5 16 17 17 16 15 15 14 14 16 20 21 21 23 23
11 14 12 12 13 12 10 9 8 8 9 8 9 7 6 5 4 1 3 4 1 2 3 3 2 4 4 4 9 19 8 17 18 17 16 15 17 18 18 20 21 21 22
10 13 15 14 14 14 11 11 8 9 10 8 8 8 7 4 4 4 4 2 4 2 2 3 3 4 4 4 8 6 7 16 19 18 16 17 19 20 18 22 22 23 22
15 14 16 16 16 14 12 12 10 11 11 7 6 9 7 3 5 4 4 4 3 4 2 1 3 3 4 5 9 8 10 18 18 18 17 19 20 22 22 23 23 23 23
16 16 17 17 18 17 13 13 11 11 12 10 8 9 7 5 4 4 5 4 4 3 3 3 3 3 4 6 8 6 9 7 6 17 18 21 21 22 23 24 22 22 18
15 17 17 17 17 16 16 16 12 12 11 10 8 9 8 6 6 5 4 5 5 4 3 1 3 3 3 4 6 8 8 8 6 14 18 21 22 23 23 21 21 19 17
17 16 18 18 17 17 17 15 12 13 10 9 7 8 6 6 5 4 4 4 4 3 1 1 3 2 3 3 8 6 8 7 7 16 14 21 23 23 23 22 22 18 16
20 17 14 21 18 17 17 16 16 12 11 9 8 6 6 6 6 6 6 5 3 3 3 2 2 3 2 5 3 5 9 8 10 8 8 17 22 22 19 23 20 19 19
19 20 16 21 19 17 13 16 15 14 12 10 6 6 5 11 16 10 5 4 4 3 3 2 3 3 3 5 8 6 6 8 11 2 6 9 10 10 8 14 14 16 21
18 20 20 20 19 12 25 23 18 13 11 10 9 7 7 11 13 17 17 14 8 3 2 2 3 2 4 4 4 7 5 9 6 3 10 10 9 9 9 9 18 16 22
16 21 17 18 19 20 23 23 20 10 10 9 8 8 7 6 9 7 14 15 14 16 11 3 3 2 4 6 6 6 9 8 7 11 9 11 8 9 12 10 15 19 21
22 17 19 18 17 15 25 23 20 12 11 10 9 7 8 7 7 8 8 7 7 6 7 6 3 4 3 6 5 4 4 8 7 8 2 9 10 11 11 7 12 23 21
20 20 17 17 19 14 25 21 17 13 12 10 7 7 7 7 11 11 8 7 7 8 11 16 15 15 16 17 14 6 9 9 9 8 3 8 9 14 8 6 9 20 20
23 16 17 16 19 16 19 16 14 11 11 8 5 6 13 9 12 11 9 5 9 6 6 9 10 11 11 11 19 8 7 9 8 5 5 9 8 12 7 3 11 10 11
Wind_Direction
188 185 194 191 187 186 197 213 213 218 255 295 304 270 236 150 151 144 143 179 153 151 153 145 141 132 126 125 116 106 105 103 91 57 31 11 2 357 352 346 337 330 325
185 193 193 199 199 195 197 209 205 228 252 303 304 289 136 145 138 144 160 196 171 169 176 172 172 159 151 158 152 150 152 148 105 59 10 359 356 350 344 340 336 330 323
189 191 194 195 201 200 198 203 230 242 279 286 283 314 123 146 146 164 189 202 180 186 203 204 199 194 194 197 194 184 190 199 59 1 351 345 340 337 333 334 332 328 325
190 193 191 206 186 180 173 188 206 262 2 116 131 104 86 114 146 180 175 191 192 213 231 237 237 234 231 235 235 219 224 247 13 344 330 323 330 328 324 322 327 323 322
193 194 197 211 170 176 187 191 172 140 149 147 103 86 92 126 96 116 167 176 229 12 360 313 289 282 273 268 273 330 323 356 341 323 330 338 330 327 326 318 320 319 315
191 197 192 201 171 166 199 169 132 91 123 167 87 68 42 59 53 47 47 50 48 66 15 349 2 1 359 335 354 22 48 10 339 334 346 342 334 327 326 320 319 316 308
196 195 207 176 172 175 185 160 116 142 105 89 100 44 34 52 27 35 52 49 57 56 56 41 38 33 45 68 62 48 20 354 344 346 341 336 328 324 322 323 324 318 312
198 191 195 182 175 165 151 150 156 130 90 20 115 90 83 26 31 26 27 52 50 40 43 43 43 49 44 41 42 19 6 1 347 342 336 334 330 325 321 317 313 314 315
199 195 182 168 167 172 169 166 160 130 131 32 92 139 108 197 138 21 26 29 44 58 55 58 50 39 27 11 359 358 15 354 345 340 336 331 329 331 332 327 320 320 315
198 190 176 163 174 166 151 152 143 130 125 139 96 46 57 137 156 143 43 21 43 64 63 52 42 30 12 1 12 12 4 356 346 343 345 339 335 337 333 330 322 316 312
182 185 171 158 160 138 131 137 131 130 113 136 137 131 80 64 70 114 170 213 63 31 62 56 46 27 12 8 11 5 357 350 345 341 344 337 342 346 334 322 318 315 310
164 180 155 150 131 125 131 122 109 111 111 99 91 84 120 135 147 106 113 191 142 187 87 59 46 28 11 3 8 3 349 345 342 343 330 329 326 349 349 337 331 327 316
174 166 145 140 129 121 115 115 107 100 98 97 96 91 74 77 98 112 117 108 107 350 327 45 47 39 10 340 330 6 354 348 347 340 332 331 332 335 346 347 340 326 331
171 161 149 137 130 121 116 110 100 97 98 94 93 77 79 53 55 101 122 129 30 355 5 334 340 19 349 326 340 359 338 339 344 339 331 325 324 326 326 340 339 334 328
156 152 138 135 125 117 116 113 107 104 94 96 90 84 82 56 59 59 65 97 148 142 306 307 347 334 321 332 332 343 320 324 340 336 331 330 329 324 314 328 333 331 323
150 149 137 136 121 116 115 113 109 105 101 91 90 93 84 72 66 58 69 62 66 123 139 254 289 280 306 332 330 339 326 337 326 334 331 338 337 332 324 325 328 330 329
152 148 143 136 127 123 117 104 102 108 99 98 90 100 89 82 78 68 63 58 56 71 100 301 263 295 312 336 329 318 313 300 315 324 333 340 334 330 327 326 332 332 329
148 141 140 137 126 120 119 118 118 103 107 106 109 104 98 95 78 73 72 73 69 48 119 287 280 294 289 312 300 307 314 318 322 316 335 337 332 326 324 331 335 334 329
141 144 143 132 125 123 116 111 117 101 106 103 103 100 107 106 87 83 81 83 64 51 55 55 291 295 296 310 331 315 316 313 320 327 326 331 329 324 328 337 342 330 340
137 141 141 121 120 118 111 114 103 108 97 95 92 104 106 101 103 100 92 85 79 51 17 2 315 312 310 311 303 302 332 338 324 312 330 328 324 317 329 336 337 338 347
137 131 128 115 116 116 118 117 112 109 109 106 101 101 119 100 96 100 104 80 69 50 24 5 348 339 318 329 349 322 324 326 314 300 326 330 318 315 321 333 322 337 341
125 126 122 119 120 114 114 119 114 115 116 112 106 85 73 76 75 81 77 76 80 89 32 35 6 352 306 301 313 327 320 353 336 302 332 319 322 317 325 322 324 337 341
108 106 100 109 106 110 115 105 107 108 112 107 102 94 81 67 73 75 74 70 58 53 66 85 16 330 316 331 320 327 339 331 298 307 322 324 325 322 328 317 322 338 341
108 96 102 103 111 108 107 105 110 109 99 95 93 94 90 71 56 72 68 57 41 26 40 48 24 355 320 312 322 315 298 292 298 312 354 319 326 329 322 306 331 341 343
96 103 108 115 107 114 111 115 115 110 102 98 92 86 89 81 63 68 73 63 43 24 24 28 19 11 357 354 4 354 349 340 341 323 325 328 327 329 307 311 337 336 344
110 105 109 99 122 121 114 119 118 113 114 100 77 73 87 90 80 75 75 63 55 6 15 8 3 358 352 347 357 3 329 348 337 321 300 333 329 342 320 323 329 337 343